[[{"header":{"parameterUnit":"m.s-1","parameterCategory":1,"la1":30.2991,"la2":30.254,"lo1":-89.0895,"lo2":-89.0444,"dy":0.0017,"dx":0.0017,"nx":28,"ny":28,"refTime":"2024-07-27T03:00:00:Z","depth":0,"parameterNumber":2,"parameterNumberName":"U-component_of_WINDS"},"data":[0,0,0,0,0,0,0,0,0,0,0,0,0,0,0,0,0,0,0,0,0,0,0,0,0,0,0,0,0,0,0,0,0,0,0,0,0,0,0,0,0,0,0,0,0,0,0,0,0,0,0,0,0,0,0,0,0,0,1.7782,1.7783,0,1.7906,1.7908,1.7909,1.7944,1.7944,1.7943,1.7942,1.807,1.8074,1.8078,0,0,0,0,0,0,0,0,0,0,0,0,0,1.7574,1.7578,1.7782,1.7783,1.7785,1.7906,1.7908,1.7909,1.7945,1.7944,1.7943,1.7942,1.8068,1.8073,1.8078,0,0,0,0,0,0,0,0,0,0,0,0,0,1.7678,1.7579,1.7782,1.7817,1.7821,1.7906,1.7908,1.791,1.7945,1.7944,1.7943,1.7942,1.8067,1.8073,1.8079,1.8136,0,0,1.8097,1.81,0,0,0,0,0,0,0,0,1.7672,1.7685,1.781,1.7815,1.782,1.7909,1.7881,1.7986,1.7945,1.7898,1.7942,1.7941,1.8017,1.8027,1.8053,1.8142,1.8148,1.8098,1.8101,1.8104,1.8106,0,0,0,0,0,0,0,1.7665,1.768,1.7831,1.7812,1.7818,1.7826,1.784,1.7901,1.7962,1.7902,1.7905,1.7919,1.8019,1.8047,1.8056,1.815,1.8097,1.8103,1.8107,1.8109,1.8292,1.8293,0,0,0,0,0,0,1.7651,1.7674,1.7827,1.7835,1.7742,1.7831,1.7846,1.7881,1.7961,1.7972,1.792,1.792,1.8037,1.8049,1.806,1.8132,1.8104,1.811,1.8113,1.829,1.8292,1.8293,0,0,0,0,0,0,1.7647,1.7665,1.7822,1.7755,1.7776,1.7836,1.7875,1.7884,1.7912,1.7975,1.7985,1.7937,1.8037,1.8052,1.8117,1.8137,1.8112,1.8118,1.8289,1.8291,1.8293,1.8276,0,0,0,0,0,0,1.7641,1.7663,1.7686,1.7755,1.7779,1.7877,1.7876,1.7887,1.7922,1.7924,1.7993,1.8004,1.8037,1.8108,1.8123,1.8145,1.8122,1.8287,1.829,1.8292,1.8275,1.8278,1.8279,0,0,0,0,0,1.7633,1.7677,1.7687,1.7705,1.7809,1.7878,1.7891,1.7928,1.7923,1.7946,1.7987,1.8002,1.8133,1.8114,1.8132,1.8156,1.8286,1.8289,1.8292,1.8275,1.8277,1.8279,0,0,0,0,0,0,1.7608,1.7686,1.7698,1.7766,1.7815,1.7883,1.7914,1.793,1.7982,1.7981,1.8025,1.8041,1.8102,1.8136,1.8114,1.8215,1.821,1.8216,1.8191,1.8194,1.8196,1.8186,1.8127,0,0,0,0,0,1.761,1.7659,1.7725,1.7778,1.7802,1.7854,1.7885,1.7909,1.7962,1.7983,1.8028,1.8078,1.8131,1.8164,1.8216,1.8281,1.8296,1.8306,1.8308,1.8309,1.8314,1.8349,1.8354,1.8302,1.8302,1.8302,0,0,1.7615,1.7664,1.7693,1.7774,1.7815,1.7864,1.7871,1.7923,1.796,1.7991,1.8054,1.8089,1.8148,1.8213,1.8244,1.8243,1.8331,1.8313,1.8313,1.8317,1.8352,1.8357,1.8361,1.8304,1.8304,1.8304,0,0,1.7649,1.7692,1.774,1.778,1.7842,1.7876,1.7887,1.7954,1.7978,1.8042,1.8066,1.811,1.82,1.8241,1.8273,1.8322,1.8337,1.8338,1.8347,1.8381,1.8385,1.8389,1.8405,1.841,1.8342,1.8342,1.8342,0,1.7647,1.7723,1.7762,1.7813,1.7848,1.7878,1.7926,1.7964,1.8039,1.8062,1.806,1.8173,1.8215,1.8288,1.83,1.8326,1.834,1.8329,1.8381,1.8386,1.839,1.8405,1.8412,1.8342,1.8342,1.8342,1.8342,0,1.7717,1.7769,1.7801,1.7872,1.7911,1.796,1.8006,1.8041,1.8061,1.8095,1.816,1.8211,1.8273,1.8293,1.8315,1.837,1.8367,1.8373,1.8368,1.8394,1.8409,1.8415,1.8341,1.8341,1.8341,1.8342,0,0,1.7739,1.7831,1.7841,1.7873,1.7943,1.7984,1.8035,1.8095,1.8123,1.8174,1.8217,1.8291,1.8297,1.8333,1.836,1.839,1.8423,1.8392,1.8394,1.8394,1.8486,1.848,1.8486,1.8434,1.8435,1.8436,1.848,0,1.7781,1.7872,1.7908,1.7982,1.8029,1.8058,1.8102,1.8149,1.8182,1.8227,1.8264,1.8316,1.832,1.8342,1.8373,1.8412,1.8442,1.841,1.8473,1.8475,1.8456,1.8494,1.8489,1.8528,1.8486,1.8488,1.8488,0,1.7842,1.7892,1.797,1.8033,1.8055,1.8093,1.8151,1.8194,1.8248,1.827,1.831,1.8334,1.8388,1.838,1.8454,1.8432,1.846,1.8483,1.8486,1.8492,1.8482,1.85,1.8541,1.8546,1.8499,1.8498,1.8497,0,1.7847,1.7935,1.7993,1.802,1.8095,1.8121,1.8154,1.8207,1.824,1.8291,1.8313,1.8369,1.84,1.8442,1.8481,1.8472,1.8551,1.8547,1.8569,1.8568,1.8584,1.8582,1.8628,1.8604,1.8604,1.8604,1.8604,0,1.7889,1.7936,1.7996,1.8032,1.8084,1.8125,1.8176,1.8211,1.8257,1.83,1.8329,1.8367,1.8417,1.8462,1.8493,1.8548,1.8562,1.8581,1.8588,1.8577,1.8575,1.8596,1.8593,1.8605,1.8605,1.8605,1.8604,0,1.7904,1.7947,1.8011,1.8077,1.8094,1.813,1.8186,1.8221,1.8255,1.8308,1.8323,1.8377,1.8431,1.8474,1.8546,1.8566,1.8624,1.8633,1.8606,1.861,1.8629,1.8626,1.8689,1.8699,1.8669,1.8669,1.867,0,1.7927,1.7964,1.8033,1.8063,1.8095,1.8144,1.8178,1.822,1.8254,1.8318,1.8345,1.8402,1.8449,1.8535,1.858,1.8634,1.8644,1.8662,1.8652,1.864,1.8643,1.8639,1.8643,1.8663,1.8663,1.8663,1.8663,0,1.7964,1.7983,1.8031,1.8086,1.8126,1.8172,1.8218,1.8241,1.8292,1.8329,1.8385,1.8421,1.8494,1.8549,1.8608,1.8642,1.8661,1.8666,1.8674,1.8663,1.8645,1.8654,1.8608,1.8664,1.8664,1.8664,1.8664,1.8664,1.7983,1.8016,1.8069,1.8122,1.8161,1.8203,1.8239,1.8277,1.8325,1.8386,1.8409,1.8466,1.8518,1.8599,1.8633,1.8678,1.8679,1.8691,1.8694,1.8696,1.8694,1.8639,1.8689,1.8689,1.8689,1.8689,1.8689,0,1.802,1.8055,1.8103,1.8166,1.8207,1.8222,1.8273,1.8307,1.8356,1.8404,1.8449,1.8513,1.8567,1.8616,1.8672,1.8699,1.8709,1.8712,1.871,1.8717,1.869,1.8677,1.8703,1.8703,1.8703,1.8703,1.8703,1.8703,1.8043,1.8099,1.8124,1.82,1.8236,1.8291,1.8319,1.8358,1.8396,1.8466,1.851,1.8542,1.859,1.8649,1.8699,1.8712,1.8731,1.8732,1.8747,1.8721,1.8719,1.8717,1.8705,1.8736,1.8736,1.8769,1.877,1.877]},{"header":{"parameterUnit":"m.s-1","parameterCategory":1,"la1":30.2991,"la2":30.254,"lo1":-89.0895,"lo2":-89.0444,"dy":0.0017,"dx":0.0017,"nx":28,"ny":28,"refTime":"2024-07-27T03:00:00:Z","depth":0,"parameterNumber":3,"parameterNumberName":"V-component_of_WINDS"},"data":[0,0,0,0,0,0,0,0,0,0,0,0,0,0,0,0,0,0,0,0,0,0,0,0,0,0,0,0,0,0,0,0,0,0,0,0,0,0,0,0,0,0,0,0,0,0,0,0,0,0,0,0,0,0,0,0,0,0,1.5263,1.5262,0,1.5187,1.5186,1.5185,1.514,1.514,1.514,1.514,1.506,1.5058,1.5056,0,0,0,0,0,0,0,0,0,0,0,0,0,1.5367,1.5365,1.5263,1.5262,1.5261,1.5187,1.5186,1.5185,1.514,1.514,1.514,1.514,1.506,1.5058,1.5056,0,0,0,0,0,0,0,0,0,0,0,0,0,1.5309,1.5364,1.5263,1.523,1.5226,1.5187,1.5186,1.5185,1.5141,1.514,1.514,1.514,1.5061,1.5058,1.5055,1.5043,0,0,1.5046,1.5045,0,0,0,0,0,0,0,0,1.5313,1.5305,1.5236,1.5232,1.5228,1.5173,1.5193,1.5137,1.5141,1.5173,1.514,1.514,1.5098,1.5092,1.5078,1.5039,1.5035,1.5046,1.5044,1.5043,1.5042,0,0,0,0,0,0,0,1.5317,1.5308,1.5233,1.5235,1.523,1.5218,1.5209,1.5182,1.5138,1.517,1.5167,1.5159,1.5095,1.5081,1.5076,1.5034,1.5046,1.5044,1.5042,1.5041,1.4978,1.4978,0,0,0,0,0,0,1.5326,1.5312,1.5235,1.5231,1.5271,1.5216,1.5207,1.5191,1.5138,1.513,1.5159,1.5157,1.5086,1.5079,1.5073,1.5052,1.5043,1.504,1.5039,1.4978,1.4978,1.4978,0,0,0,0,0,0,1.5329,1.532,1.5238,1.527,1.5259,1.5215,1.5197,1.5189,1.5175,1.5129,1.5121,1.5152,1.5085,1.5077,1.505,1.5049,1.5039,1.5036,1.4978,1.4978,1.4978,1.5013,0,0,0,0,0,0,1.5332,1.5321,1.5317,1.5271,1.5258,1.5218,1.5197,1.5188,1.517,1.5167,1.5121,1.5113,1.5085,1.5055,1.5047,1.5045,1.5034,1.4978,1.4978,1.4978,1.5012,1.5014,1.5017,0,0,0,0,0,1.5336,1.533,1.5317,1.5308,1.5251,1.5218,1.5211,1.5179,1.517,1.5165,1.5135,1.5115,1.505,1.5052,1.5043,1.504,1.4977,1.4978,1.4978,1.5011,1.5014,1.5016,0,0,0,0,0,0,1.5376,1.5323,1.5308,1.5287,1.5258,1.5211,1.5203,1.5183,1.5155,1.5153,1.5113,1.5103,1.508,1.5057,1.506,1.5023,1.5011,1.501,1.5039,1.5042,1.5044,1.505,1.5032,0,0,0,0,0,1.5383,1.5362,1.5316,1.5301,1.5287,1.5248,1.5232,1.521,1.5177,1.5165,1.5133,1.5102,1.5074,1.5057,1.5029,1.5008,1.4996,1.5001,1.5004,1.5006,1.5005,1.499,1.4991,1.4979,1.4979,1.4979,0,0,1.5396,1.5364,1.5353,1.5309,1.5283,1.5261,1.5238,1.5215,1.5197,1.5161,1.5133,1.5109,1.5071,1.5047,1.5034,1.5027,1.5006,1.5006,1.5008,1.5006,1.499,1.4992,1.4993,1.4979,1.4979,1.4979,0,0,1.5409,1.5383,1.5368,1.5342,1.5304,1.5277,1.5274,1.5229,1.5212,1.5184,1.5155,1.5133,1.5087,1.5061,1.5041,1.5041,1.5021,1.5033,1.5046,1.5032,1.5033,1.5034,1.5032,1.5032,1.5033,1.5033,1.5033,0,1.543,1.5396,1.5362,1.5341,1.5321,1.5287,1.527,1.5247,1.5201,1.5188,1.518,1.5121,1.5093,1.5061,1.5061,1.5047,1.504,1.5039,1.5036,1.5036,1.5036,1.5034,1.5034,1.5034,1.5034,1.5034,1.5034,0,1.5423,1.5399,1.5391,1.5348,1.5327,1.5308,1.527,1.5253,1.5232,1.5206,1.5177,1.5142,1.5106,1.5097,1.5076,1.5061,1.5057,1.5043,1.503,1.504,1.5037,1.5036,1.5037,1.5036,1.5036,1.5035,0,0,1.5459,1.5397,1.5394,1.5374,1.5328,1.5308,1.5287,1.5252,1.5237,1.5206,1.5186,1.5147,1.5133,1.5111,1.5087,1.5075,1.5075,1.5062,1.5061,1.5065,1.5055,1.5065,1.5065,1.5062,1.5061,1.5061,1.5057,0,1.5464,1.5425,1.5393,1.5365,1.5342,1.5308,1.5289,1.5259,1.5233,1.5208,1.518,1.5152,1.5137,1.5123,1.511,1.5078,1.5073,1.5078,1.5041,1.504,1.5051,1.5064,1.5075,1.5073,1.5056,1.5056,1.5056,0,1.5465,1.5436,1.5405,1.536,1.5349,1.5333,1.5297,1.5275,1.5238,1.522,1.5195,1.517,1.5143,1.5133,1.5096,1.51,1.5083,1.5065,1.5064,1.5059,1.5048,1.5058,1.5072,1.5072,1.5055,1.5055,1.5055,0,1.5493,1.5446,1.5421,1.5405,1.5352,1.5341,1.5318,1.5281,1.5262,1.523,1.5216,1.5182,1.5163,1.5136,1.5102,1.5098,1.5067,1.5054,1.505,1.5051,1.5045,1.5046,1.5056,1.5036,1.5036,1.5036,1.5036,0,1.5502,1.5484,1.5433,1.5418,1.5396,1.5359,1.5339,1.5313,1.528,1.5258,1.5227,1.5207,1.5163,1.5137,1.5109,1.5081,1.5073,1.5057,1.505,1.5059,1.5061,1.5047,1.5046,1.5036,1.5036,1.5036,1.5036,0,1.553,1.5495,1.5465,1.5418,1.5405,1.5391,1.535,1.5333,1.5305,1.5277,1.5269,1.5225,1.5192,1.5155,1.5111,1.5092,1.5066,1.5056,1.5078,1.5074,1.5072,1.5072,1.5072,1.507,1.5052,1.5053,1.5053,0,1.5537,1.5522,1.5473,1.5456,1.5434,1.5408,1.5388,1.535,1.533,1.5286,1.5274,1.5239,1.5209,1.5159,1.5122,1.5087,1.5075,1.5078,1.507,1.5079,1.5074,1.5075,1.5072,1.508,1.508,1.5081,1.5081,0,1.5553,1.5536,1.5508,1.5474,1.545,1.5422,1.5391,1.5379,1.5335,1.5313,1.528,1.5257,1.5211,1.5176,1.5136,1.5111,1.5088,1.5084,1.508,1.509,1.5103,1.5095,1.5083,1.5084,1.5083,1.5083,1.5083,1.5083,1.557,1.5555,1.5517,1.5487,1.546,1.5432,1.5413,1.5383,1.5355,1.5315,1.5294,1.526,1.5222,1.5166,1.5142,1.5114,1.5106,1.5103,1.5101,1.5101,1.5103,1.5108,1.5107,1.5107,1.5106,1.5106,1.5106,0,1.5583,1.5557,1.5529,1.5488,1.5463,1.5444,1.5409,1.539,1.5361,1.5328,1.5299,1.5259,1.5225,1.5185,1.5148,1.5133,1.5122,1.5125,1.5125,1.5119,1.5112,1.5118,1.5135,1.5135,1.5135,1.5135,1.5135,1.5135,1.5587,1.556,1.5539,1.5498,1.5471,1.5439,1.542,1.5393,1.5366,1.5324,1.5296,1.527,1.5233,1.5193,1.516,1.5149,1.5137,1.5143,1.5128,1.5123,1.512,1.5118,1.5123,1.514,1.514,1.5138,1.5138,1.5138]}]]